This is the latest recevied weather packets stored in our database for station/object JF2ZGN-13. If no packets are shown the sender has not sent any weather packets the latest 10 day(s).
| Time | Temp. | Humidity | Pressure | Rain* | Wind** | Luminosity | Snow |
|---|---|---|---|---|---|---|---|
| 1777439390 | 15° C | 19% | 904.2 hPa | 0 mm | - | - | - |
| 1777438790 | 15° C | 14% | 904.2 hPa | 0 mm | - | - | - |
| 1777438190 | 15° C | 18% | 904.5 hPa | 0 mm | - | - | - |
| 1777437589 | 15° C | 24% | 904.4 hPa | 0 mm | - | - | - |
| 1777436989 | 15° C | 23% | 904.5 hPa | 0 mm | - | - | - |
| 1777436388 | 15° C | 28% | 904.7 hPa | 0 mm | - | - | - |
| 1777435788 | 15° C | 32% | 904.7 hPa | 0 mm | - | - | - |
| 1777435187 | 15° C | 24% | 904.8 hPa | 0 mm | - | - | - |
| 1777434587 | 15° C | 33% | 904.7 hPa | 0 mm | - | - | - |
| 1777433386 | 15° C | 31% | 904.7 hPa | 0 mm | - | - | - |
| 1777432785 | 15° C | 31% | 904.8 hPa | 0 mm | - | - | - |
| 1777432185 | 15° C | 34% | 904.8 hPa | 0 mm | - | - | - |
| 1777430983 | 15.56° C | 34% | 904.9 hPa | 0 mm | - | - | - |
| 1777430383 | 15° C | 34% | 905 hPa | 0 mm | - | - | - |
| 1777429782 | 15° C | 36% | 905.1 hPa | 0 mm | - | - | - |
| 1777429181 | 15.56° C | 32% | 905.1 hPa | 0 mm | - | - | - |
| 1777428580 | 15° C | 40% | 905 hPa | 0 mm | - | - | - |
| 1777427980 | 15° C | 43% | 905.1 hPa | 0 mm | - | - | - |
| 1777427379 | 15° C | 37% | 905.1 hPa | 0 mm | - | - | - |
| 1777426779 | 15° C | 42% | 905.2 hPa | 0 mm | - | - | - |
| 1777426179 | 15° C | 39% | 905.1 hPa | 0 mm | - | - | - |
| 1777425578 | 14.44° C | 43% | 904.9 hPa | 0 mm | - | - | - |
| 1777424977 | 14.44° C | 47% | 904.9 hPa | 0 mm | - | - | - |
| 1777424377 | 14.44° C | 49% | 904.8 hPa | 0 mm | - | - | - |
| 1777423777 | 14.44° C | 50% | 904.7 hPa | 0 mm | - | - | - |
* Rain since midnight (hover to see other rain measurements)
** Current wind speed in m/s (hover to see current wind gust speed)